Time,TemperatureF,DewpointF,PressureIn,WindDirection,WindDirectionDegrees,WindSpeedMPH,WindSpeedGustMPH,Humidity,HourlyPrecipIn,Conditions,Clouds,dailyrainin,SoftwareType,DateUTC
2013-07-25 00:13:00,50.5,45.8,30.01,West,270,0.0,-999.0,84,-99.99,,,0.00,Acu-Link.com,2013-07-25 04:13:00,
2013-07-25 00:29:00,50.5,45.8,30.00,SW,225,1.1,-999.0,84,-99.99,,,0.00,Acu-Link.com,2013-07-25 04:29:00,
2013-07-25 00:44:00,50.2,45.9,29.99,NNW,337,2.2,-999.0,85,-99.99,,,0.00,Acu-Link.com,2013-07-25 04:44:00,
2013-07-25 00:59:00,50.0,45.7,30.01,NNE,22,0.0,-999.0,85,-99.99,,,0.00,Acu-Link.com,2013-07-25 04:59:00,
2013-07-25 01:14:00,50.0,45.7,30.00,SW,225,0.0,-999.0,85,-99.99,,,0.00,Acu-Link.com,2013-07-25 05:14:00,
2013-07-25 01:29:00,50.0,46.0,29.99,WSW,247,1.7,-999.0,86,-99.99,,,0.00,Acu-Link.com,2013-07-25 05:29:00,
2013-07-25 01:45:00,50.0,46.0,30.00,West,270,2.7,-999.0,86,-99.99,,,0.00,Acu-Link.com,2013-07-25 05:45:00,
2013-07-25 02:00:00,49.8,45.8,29.99,South,180,0.0,-999.0,86,-99.99,,,0.00,Acu-Link.com,2013-07-25 06:00:00,
2013-07-25 02:15:00,49.6,45.6,30.00,SW,225,0.0,-999.0,86,-99.99,,,0.00,Acu-Link.com,2013-07-25 06:15:00,
2013-07-25 02:30:00,49.5,45.2,30.00,WNW,292,1.1,-999.0,85,-99.99,,,0.00,Acu-Link.com,2013-07-25 06:30:00,
2013-07-25 02:45:00,49.3,44.7,30.00,WNW,292,2.2,-999.0,84,-99.99,,,0.00,Acu-Link.com,2013-07-25 06:45:00,
2013-07-25 03:01:00,49.3,45.0,30.00,NW,315,1.1,-999.0,85,-99.99,,,0.00,Acu-Link.com,2013-07-25 07:01:00,
2013-07-25 03:16:00,49.1,44.5,29.99,ENE,67,0.0,-999.0,84,-99.99,,,0.00,Acu-Link.com,2013-07-25 07:16:00,
2013-07-25 03:46:00,48.6,43.7,30.00,ESE,112,0.0,-999.0,83,-99.99,,,0.00,Acu-Link.com,2013-07-25 07:46:00,
2013-07-25 04:01:00,48.4,43.5,30.01,ESE,112,2.7,-999.0,83,-99.99,,,0.00,Acu-Link.com,2013-07-25 08:01:00,
2013-07-25 04:17:00,48.4,43.2,30.01,NW,315,3.2,-999.0,82,-99.99,,,0.00,Acu-Link.com,2013-07-25 08:17:00,
2013-07-25 04:32:00,48.4,42.8,30.02,ESE,112,1.1,-999.0,81,-99.99,,,0.00,Acu-Link.com,2013-07-25 08:32:00,
2013-07-25 04:47:00,48.2,42.6,30.01,North,0,2.7,-999.0,81,-99.99,,,0.00,Acu-Link.com,2013-07-25 08:47:00,
2013-07-25 05:02:00,47.8,42.3,30.01,South,180,0.0,-999.0,81,-99.99,,,0.00,Acu-Link.com,2013-07-25 09:02:00,
2013-07-25 05:17:00,47.5,42.3,30.01,North,0,2.7,-999.0,82,-99.99,,,0.00,Acu-Link.com,2013-07-25 09:17:00,
2013-07-25 05:33:00,47.3,42.1,30.03,ENE,67,0.0,-999.0,82,-99.99,,,0.00,Acu-Link.com,2013-07-25 09:33:00,
2013-07-25 05:48:00,47.1,42.2,30.02,ENE,67,0.0,-999.0,83,-99.99,,,0.00,Acu-Link.com,2013-07-25 09:48:00,
2013-07-25 06:03:00,46.9,42.0,30.01,SE,135,5.3,-999.0,83,-99.99,,,0.00,Acu-Link.com,2013-07-25 10:03:00,
2013-07-25 06:18:00,47.1,42.2,30.02,SSE,157,0.0,-999.0,83,-99.99,,,0.00,Acu-Link.com,2013-07-25 10:18:00,
2013-07-25 06:34:00,47.7,42.5,30.03,South,180,1.7,-999.0,82,-99.99,,,0.00,Acu-Link.com,2013-07-25 10:34:00,
2013-07-25 06:49:00,47.8,42.6,30.05,East,90,2.2,-999.0,82,-99.99,,,0.00,Acu-Link.com,2013-07-25 10:49:00,
2013-07-25 07:04:00,48.4,42.5,30.05,NE,45,1.7,-999.0,80,-99.99,,,0.00,Acu-Link.com,2013-07-25 11:04:00,
2013-07-25 07:19:00,49.1,43.2,30.04,ESE,112,1.1,-999.0,80,-99.99,,,0.00,Acu-Link.com,2013-07-25 11:19:00,
2013-07-25 07:34:00,49.6,43.0,30.06,ESE,112,5.8,-999.0,78,-99.99,,,0.00,Acu-Link.com,2013-07-25 11:34:00,
2013-07-25 07:50:00,50.9,44.3,30.05,NNE,22,1.7,-999.0,78,-99.99,,,0.00,Acu-Link.com,2013-07-25 11:50:00,
2013-07-25 08:05:00,50.7,43.8,30.07,SW,225,4.2,-999.0,77,-99.99,,,0.00,Acu-Link.com,2013-07-25 12:05:00,
2013-07-25 08:20:00,52.5,44.8,30.06,ESE,112,4.2,-999.0,75,-99.99,,,0.00,Acu-Link.com,2013-07-25 12:20:00,
2013-07-25 08:35:00,53.8,46.1,30.08,ESE,112,1.7,-999.0,75,-99.99,,,0.00,Acu-Link.com,2013-07-25 12:35:00,
2013-07-25 08:50:00,54.5,46.0,30.07,ESE,112,2.7,-999.0,73,-99.99,,,0.00,Acu-Link.com,2013-07-25 12:50:00,
2013-07-25 09:06:00,54.5,45.7,30.07,WSW,247,2.7,-999.0,72,-99.99,,,0.00,Acu-Link.com,2013-07-25 13:06:00,
2013-07-25 09:21:00,55.0,45.4,30.06,ENE,67,2.7,-999.0,70,-99.99,,,0.00,Acu-Link.com,2013-07-25 13:21:00,
2013-07-25 09:36:00,57.6,47.9,30.08,WSW,247,1.7,-999.0,70,-99.99,,,0.00,Acu-Link.com,2013-07-25 13:36:00,
2013-07-25 09:52:00,58.1,48.7,30.07,SSE,157,2.7,-999.0,71,-99.99,,,0.00,Acu-Link.com,2013-07-25 13:52:00,
2013-07-25 10:07:00,57.7,48.0,30.09,West,270,2.7,-999.0,70,-99.99,,,0.00,Acu-Link.com,2013-07-25 14:07:00,
2013-07-25 10:23:00,57.9,47.4,30.07,WSW,247,3.2,-999.0,68,-99.99,,,0.00,Acu-Link.com,2013-07-25 14:23:00,
2013-07-25 10:38:00,59.5,49.3,30.07,WSW,247,3.2,-999.0,69,-99.99,,,0.00,Acu-Link.com,2013-07-25 14:38:00,
2013-07-25 10:53:00,60.1,49.1,30.06,SW,225,2.7,-999.0,67,-99.99,,,0.00,Acu-Link.com,2013-07-25 14:53:00,
2013-07-25 11:08:00,62.2,49.9,30.07,SW,225,3.2,-999.0,64,-99.99,,,0.00,Acu-Link.com,2013-07-25 15:08:00,
2013-07-25 11:23:00,63.1,49.0,30.07,WSW,247,2.2,-999.0,60,-99.99,,,0.00,Acu-Link.com,2013-07-25 15:23:00,
2013-07-25 11:39:00,62.6,49.8,30.06,NNE,22,2.2,-999.0,63,-99.99,,,0.00,Acu-Link.com,2013-07-25 15:39:00,
2013-07-25 11:54:00,64.0,49.8,30.07,SSW,202,5.3,-999.0,60,-99.99,,,0.00,Acu-Link.com,2013-07-25 15:54:00,
2013-07-25 12:09:00,63.3,49.2,30.07,ESE,112,2.7,-999.0,60,-99.99,,,0.00,Acu-Link.com,2013-07-25 16:09:00,
2013-07-25 12:24:00,64.9,50.7,30.06,ENE,67,2.7,-999.0,60,-99.99,,,0.00,Acu-Link.com,2013-07-25 16:24:00,
2013-07-25 12:39:00,64.9,50.2,30.05,ESE,112,3.2,-999.0,59,-99.99,,,0.00,Acu-Link.com,2013-07-25 16:39:00,
2013-07-25 12:54:00,65.8,51.5,30.07,South,180,5.3,-999.0,60,-99.99,,,0.00,Acu-Link.com,2013-07-25 16:54:00,
2013-07-25 13:10:00,66.4,51.2,30.06,SE,135,2.7,-999.0,58,-99.99,,,0.00,Acu-Link.com,2013-07-25 17:10:00,
2013-07-25 13:25:00,67.1,50.4,30.07,SW,225,2.7,-999.0,55,-99.99,,,0.00,Acu-Link.com,2013-07-25 17:25:00,
2013-07-25 13:40:00,68.4,51.6,30.06,SSE,157,1.7,-999.0,55,-99.99,,,0.00,Acu-Link.com,2013-07-25 17:40:00,
2013-07-25 13:55:00,68.2,52.4,30.07,SSE,157,5.3,-999.0,57,-99.99,,,0.00,Acu-Link.com,2013-07-25 17:55:00,
2013-07-25 14:10:00,70.0,51.0,30.06,SE,135,2.2,-999.0,51,-99.99,,,0.00,Acu-Link.com,2013-07-25 18:10:00,
2013-07-25 14:26:00,67.1,49.4,30.06,WSW,247,2.2,-999.0,53,-99.99,,,0.00,Acu-Link.com,2013-07-25 18:26:00,
2013-07-25 14:41:00,69.6,51.2,30.05,SSE,157,2.7,-999.0,52,-99.99,,,0.00,Acu-Link.com,2013-07-25 18:41:00,
2013-07-25 14:56:00,69.4,51.5,30.06,West,270,1.1,-999.0,53,-99.99,,,0.00,Acu-Link.com,2013-07-25 18:56:00,
2013-07-25 15:27:00,70.5,51.0,30.05,SSW,202,1.7,-999.0,50,-99.99,,,0.00,Acu-Link.com,2013-07-25 19:27:00,
2013-07-25 15:42:00,70.7,53.7,30.04,West,270,4.2,-999.0,55,-99.99,,,0.00,Acu-Link.com,2013-07-25 19:42:00,
2013-07-25 15:57:00,72.3,53.1,30.05,SSW,202,2.2,-999.0,51,-99.99,,,0.00,Acu-Link.com,2013-07-25 19:57:00,
2013-07-25 16:12:00,73.0,52.7,30.04,SSW,202,2.2,-999.0,49,-99.99,,,0.00,Acu-Link.com,2013-07-25 20:12:00,
2013-07-25 16:27:00,76.5,51.7,30.04,West,270,4.2,-999.0,42,-99.99,,,0.00,Acu-Link.com,2013-07-25 20:27:00,
2013-07-25 16:44:00,75.7,50.3,30.04,NE,45,2.2,-999.0,41,-99.99,,,0.00,Acu-Link.com,2013-07-25 20:44:00,
2013-07-25 16:59:00,74.3,53.3,30.04,SW,225,2.2,-999.0,48,-99.99,,,0.00,Acu-Link.com,2013-07-25 20:59:00,
2013-07-25 17:15:00,75.7,52.8,30.05,WNW,292,3.2,-999.0,45,-99.99,,,0.00,Acu-Link.com,2013-07-25 21:15:00,
2013-07-25 17:30:00,74.7,52.5,30.05,SW,225,0.0,-999.0,46,-99.99,,,0.00,Acu-Link.com,2013-07-25 21:30:00,
2013-07-25 17:45:00,73.9,54.1,30.04,SW,225,3.2,-999.0,50,-99.99,,,0.00,Acu-Link.com,2013-07-25 21:45:00,
2013-07-25 18:00:00,72.0,52.9,30.05,NNE,22,2.7,-999.0,51,-99.99,,,0.00,Acu-Link.com,2013-07-25 22:00:00,
2013-07-25 18:15:00,72.3,54.2,30.04,NW,315,1.7,-999.0,53,-99.99,,,0.00,Acu-Link.com,2013-07-25 22:15:00,
2013-07-25 18:31:00,70.9,53.9,30.03,ESE,112,2.7,-999.0,55,-99.99,,,0.00,Acu-Link.com,2013-07-25 22:31:00,
2013-07-25 19:01:00,68.7,53.8,30.04,NW,315,1.7,-999.0,59,-99.99,,,0.00,Acu-Link.com,2013-07-25 23:01:00,
2013-07-25 19:16:00,66.9,54.3,30.05,NNE,22,0.0,-999.0,64,-99.99,,,0.00,Acu-Link.com,2013-07-25 23:16:00,
2013-07-25 19:31:00,65.8,53.7,30.06,East,90,0.0,-999.0,65,-99.99,,,0.00,Acu-Link.com,2013-07-25 23:31:00,
2013-07-25 19:46:00,64.9,53.3,30.07,NNE,22,1.1,-999.0,66,-99.99,,,0.00,Acu-Link.com,2013-07-25 23:46:00,
2013-07-25 20:02:00,64.4,52.4,30.07,NE,45,2.2,-999.0,65,-99.99,,,0.00,Acu-Link.com,2013-07-26 00:02:00,
2013-07-25 20:17:00,63.9,52.7,30.07,East,90,2.7,-999.0,67,-99.99,,,0.00,Acu-Link.com,2013-07-26 00:17:00,
2013-07-25 20:32:00,63.5,52.7,30.07,SE,135,1.1,-999.0,68,-99.99,,,0.00,Acu-Link.com,2013-07-26 00:32:00,
2013-07-25 20:47:00,62.1,52.2,30.08,North,0,0.0,-999.0,70,-99.99,,,0.00,Acu-Link.com,2013-07-26 00:47:00,
2013-07-25 21:02:00,61.3,52.2,30.09,ENE,67,0.0,-999.0,72,-99.99,,,0.00,Acu-Link.com,2013-07-26 01:02:00,
2013-07-25 21:17:00,60.4,52.4,30.08,ENE,67,2.2,-999.0,75,-99.99,,,0.00,Acu-Link.com,2013-07-26 01:17:00,
2013-07-25 21:33:00,59.9,52.3,30.09,NNE,22,1.1,-999.0,76,-99.99,,,0.00,Acu-Link.com,2013-07-26 01:33:00,
2013-07-25 21:48:00,59.2,52.0,30.10,ESE,112,2.2,-999.0,77,-99.99,,,0.00,Acu-Link.com,2013-07-26 01:48:00,
2013-07-25 22:03:00,59.4,52.5,30.10,East,90,1.7,-999.0,78,-99.99,,,0.00,Acu-Link.com,2013-07-26 02:03:00,
2013-07-25 22:18:00,59.4,52.5,30.10,ESE,112,3.2,-999.0,78,-99.99,,,0.00,Acu-Link.com,2013-07-26 02:18:00,
2013-07-25 22:33:00,59.4,52.5,30.10,East,90,4.2,-999.0,78,-99.99,,,0.00,Acu-Link.com,2013-07-26 02:33:00,
2013-07-25 22:49:00,59.4,52.5,30.11,ESE,112,2.2,-999.0,78,-99.99,,,0.00,Acu-Link.com,2013-07-26 02:49:00,
2013-07-25 23:04:00,59.2,52.7,30.10,NNW,337,0.0,-999.0,79,-99.99,,,0.00,Acu-Link.com,2013-07-26 03:04:00,
2013-07-25 23:19:00,58.6,52.4,30.10,NE,45,0.0,-999.0,80,-99.99,,,0.00,Acu-Link.com,2013-07-26 03:19:00,
2013-07-25 23:34:00,58.3,52.5,30.09,NNE,22,0.0,-999.0,81,-99.99,,,0.00,Acu-Link.com,2013-07-26 03:34:00,
2013-07-25 23:49:00,58.1,52.3,30.09,WNW,292,0.0,-999.0,81,-99.99,,,0.00,Acu-Link.com,2013-07-26 03:49:00,